Tehachapi, CA

6:10 AM PST on December 11, 2019 (GMT -0800)
Tehachapi Municipal

Weather History for KTSP - October, 2019

Change the Weather History Date:

Tuesday, October 1, 2019

  Actual Average Record
Temperature  
Mean Temperature 44 °F -  
Max Temperature 57 °F 77 °F 89 °F (2012)
Min Temperature 32 °F 47 °F 39 °F (2014)
Degree Days  
Heating Degree Days 20    
Moisture  
Dew Point 30 °F    
Average Humidity 56    
Maximum Humidity 87    
Minimum Humidity 36    
Precipitation  
Precipitation 0.00 in - - ()
Sea Level Pressure  
Sea Level Pressure 29.97 in    
Wind  
Wind Speed 9 mph ()    
Max Wind Speed 17 mph    
Max Gust Speed 23 mph    
Visibility 9.5 miles    
Events      
Averages and records for this station are not official NWS values.
T = Trace of Precipitation, MM = Missing Value Source: Averaged Metar Reports

Daily Weather History Graph

Daily Weather History Graph

Search for Another Location

Airport or City:

Astronomy

Oct. 01, 2019 Rise Set
Actual Time 6:48 AM PDT 6:37 PM PDT
Civil Twilight 6:23 AM PDT 7:03 PM PDT
Nautical Twilight 5:53 AM PDT 7:32 PM PDT
Astronomical Twilight 5:24 AM PDT 8:01 PM PDT
Moon 10:03 AM PDT (10/1) 9:01 PM PDT (10/1)
Length of Visible Light 12h 39m
Length of Day
11h 49m
Waxing Crescent, 13% of the Moon is Illuminated
Oct 1
Waxing Crescent
Oct 5
First Quarter
Oct 13
Full
Oct 21
Last Quarter
Oct 27
New

Hourly Weather History & Observations

Time (PDT) Temp. Windchill Dew Point Humidity Pressure Visibility Wind Dir Wind Speed Gust Speed Precip Events Conditions
12:15 AM 42.8 °F 37.5 °F 32.0 °F 66% 29.93 in 10.0 mi WNW 9.2 mph - N/A   Scattered Clouds
12:35 AM 42.8 °F 37.0 °F 32.0 °F 66% 29.93 in 10.0 mi WNW 10.4 mph - N/A   Scattered Clouds
12:55 AM 42.8 °F 37.5 °F 32.0 °F 66% 29.93 in 10.0 mi WNW 9.2 mph - N/A   Partly Cloudy
1:15 AM 42.8 °F 37.5 °F 32.0 °F 66% 29.93 in 10.0 mi WNW 9.2 mph - N/A   Clear
1:35 AM 41.0 °F 35.2 °F 32.0 °F 70% 29.93 in 10.0 mi WNW 9.2 mph - N/A   Clear
1:55 AM 41.0 °F 35.8 °F 32.0 °F 70% 29.93 in 10.0 mi West 8.1 mph - N/A   Clear
2:15 AM 39.2 °F 33.0 °F 32.0 °F 75% 29.93 in 10.0 mi West 9.2 mph - N/A   Clear
2:35 AM 41.0 °F 33.5 °F 32.0 °F 70% 29.93 in 10.0 mi West 13.8 mph - N/A   Clear
2:55 AM 41.0 °F 33.5 °F 32.0 °F 70% 29.93 in 10.0 mi West 13.8 mph - N/A   Clear
3:15 AM 41.0 °F 34.3 °F 32.0 °F 70% 29.93 in 10.0 mi West 11.5 mph - N/A   Clear
3:55 AM 41.0 °F 33.5 °F 32.0 °F 70% 29.92 in 10.0 mi WNW 13.8 mph 17.3 mph N/A   Partly Cloudy
4:15 AM 41.0 °F 34.3 °F 32.0 °F 70% 29.92 in 10.0 mi WNW 11.5 mph - N/A   Partly Cloudy
4:35 AM 41.0 °F 34.7 °F 30.2 °F 65% 29.92 in 10.0 mi West 10.4 mph - N/A   Clear
4:55 AM 39.2 °F 33.6 °F 30.2 °F 70% 29.92 in 10.0 mi West 8.1 mph - N/A   Clear
5:15 AM 39.2 °F 37.0 °F 30.2 °F 70% 29.92 in 10.0 mi WNW 3.5 mph - N/A   Clear
5:35 AM 37.4 °F - 30.2 °F 75% 29.93 in 10.0 mi Calm Calm - N/A   Clear
5:55 AM 35.6 °F 32.8 °F 28.4 °F 75% 29.93 in 10.0 mi North 3.5 mph - N/A   Clear
6:15 AM 32.0 °F 28.7 °F 28.4 °F 87% 29.93 in 10.0 mi NNE 3.5 mph - N/A   Clear
6:35 AM 32.0 °F - 28.4 °F 87% 29.93 in 10.0 mi Calm Calm - N/A   Clear
6:55 AM 32.0 °F 28.7 °F 28.4 °F 87% 29.94 in 9.0 mi West 3.5 mph - N/A   Clear
7:15 AM 33.8 °F 29.6 °F 28.4 °F 81% 29.94 in 9.0 mi WNW 4.6 mph - N/A   Clear
7:35 AM 37.4 °F 33.8 °F 30.2 °F 75% 29.94 in 9.0 mi WNW 4.6 mph - N/A   Clear
7:55 AM 41.0 °F 35.8 °F 32.0 °F 70% 29.95 in 10.0 mi West 8.1 mph - N/A   Clear
8:15 AM 42.8 °F 37.0 °F 30.2 °F 61% 29.96 in 10.0 mi WNW 10.4 mph 16.1 mph N/A   Clear
8:35 AM 46.4 °F 42.4 °F 30.2 °F 53% 29.96 in 9.0 mi WNW 8.1 mph - N/A   Clear
8:55 AM 46.4 °F 42.4 °F 28.4 °F 50% 29.96 in 9.0 mi WNW 8.1 mph - N/A   Clear
9:15 AM 48.2 °F - 28.4 °F 46% 29.96 in 10.0 mi WNW 9.2 mph - N/A   Clear
9:35 AM 50.0 °F - 28.4 °F 43% 29.97 in 9.0 mi NW 10.4 mph - N/A   Clear
9:55 AM 50.0 °F - 28.4 °F 43% 29.97 in 10.0 mi NW 15.0 mph 19.6 mph N/A   Clear
10:15 AM 50.0 °F - 26.6 °F 40% 29.97 in 10.0 mi NW 15.0 mph 18.4 mph N/A   Clear
10:55 AM 51.8 °F - 26.6 °F 38% 29.98 in 10.0 mi NW 16.1 mph 19.6 mph N/A   Clear
11:15 AM 53.6 °F - 28.4 °F 38% 29.98 in 10.0 mi NW 17.3 mph 20.7 mph N/A   Clear
11:35 AM 53.6 °F - 28.4 °F 38% 29.98 in 10.0 mi NW 15.0 mph 19.6 mph N/A   Clear
11:55 AM 53.6 °F - 28.4 °F 38% 29.98 in 8.0 mi NW 16.1 mph 20.7 mph N/A   Clear
12:15 PM 55.4 °F - 30.2 °F 38% 29.98 in 8.0 mi NW 16.1 mph - N/A   Clear
12:35 PM 55.4 °F - 32.0 °F 41% 29.97 in 7.0 mi NNW 12.7 mph 18.4 mph N/A   Clear
12:55 PM 55.4 °F - 30.2 °F 38% 29.97 in 6.0 mi NW 16.1 mph 20.7 mph N/A   Haze
1:15 PM 55.4 °F - 30.2 °F 38% 29.97 in 8.0 mi NW 15.0 mph 21.9 mph N/A   Clear
1:35 PM 55.4 °F - 30.2 °F 38% 29.96 in 8.0 mi NW 16.1 mph 21.9 mph N/A   Clear
1:55 PM 57.2 °F - 30.2 °F 36% 29.96 in 9.0 mi NW 13.8 mph 20.7 mph N/A   Clear
2:15 PM 55.4 °F - 32.0 °F 41% 29.96 in 8.0 mi NW 16.1 mph 21.9 mph N/A   Clear
2:35 PM 57.2 °F - 32.0 °F 38% 29.96 in 8.0 mi NW 17.3 mph 21.9 mph N/A   Clear
2:55 PM 57.2 °F - 32.0 °F 38% 29.96 in 8.0 mi NW 17.3 mph 23.0 mph N/A   Clear
3:15 PM 57.2 °F - 32.0 °F 38% 29.96 in 7.0 mi NW 15.0 mph 20.7 mph N/A   Clear
3:35 PM 55.4 °F - 32.0 °F 41% 29.96 in 8.0 mi NW 12.7 mph 18.4 mph N/A   Clear
3:55 PM 55.4 °F - 30.2 °F 38% 29.96 in 9.0 mi NW 16.1 mph 19.6 mph N/A   Clear
4:15 PM 55.4 °F - 28.4 °F 36% 29.96 in 9.0 mi WNW 16.1 mph 20.7 mph N/A   Clear
4:35 PM 55.4 °F - 28.4 °F 36% 29.96 in 9.0 mi NW 15.0 mph 21.9 mph N/A   Clear
4:55 PM 53.6 °F - 28.4 °F 38% 29.97 in 10.0 mi NW 16.1 mph 21.9 mph N/A   Clear
5:15 PM 53.6 °F - 30.2 °F 41% 29.97 in 10.0 mi NW 16.1 mph 20.7 mph N/A   Clear
5:35 PM 53.6 °F - 30.2 °F 41% 29.97 in 10.0 mi NW 15.0 mph 19.6 mph N/A   Clear
5:55 PM 50.0 °F - 30.2 °F 47% 29.97 in 10.0 mi NW 13.8 mph 19.6 mph N/A   Clear
6:15 PM 50.0 °F - 30.2 °F 47% 29.98 in 10.0 mi WNW 11.5 mph - N/A   Clear
6:35 PM 48.2 °F - 30.2 °F 50% 29.98 in 10.0 mi WNW 10.4 mph - N/A   Clear
6:55 PM 48.2 °F - 28.4 °F 46% 29.98 in 10.0 mi WNW 9.2 mph - N/A   Clear
7:15 PM 46.4 °F 42.9 °F 28.4 °F 50% 29.99 in 10.0 mi WNW 6.9 mph - N/A   Clear
7:35 PM 44.6 °F 41.4 °F 28.4 °F 53% 29.99 in 10.0 mi NW 5.8 mph - N/A   Clear
7:55 PM 44.6 °F 42.2 °F 28.4 °F 53% 30.00 in 10.0 mi NW 4.6 mph - N/A   Clear
8:15 PM 44.6 °F 41.4 °F 30.2 °F 57% 30.00 in 10.0 mi WNW 5.8 mph - N/A   Clear
8:35 PM 41.0 °F 37.1 °F 28.4 °F 61% 30.00 in 10.0 mi West 5.8 mph - N/A   Clear
8:55 PM 41.0 °F 35.8 °F 28.4 °F 61% 30.01 in 10.0 mi West 8.1 mph - N/A   Clear
9:15 PM 41.0 °F 38.0 °F 28.4 °F 61% 30.01 in 10.0 mi WNW 4.6 mph - N/A   Clear
9:35 PM 41.0 °F - 28.4 °F 61% 30.02 in 10.0 mi Calm Calm - N/A   Clear
9:55 PM 39.2 °F 34.2 °F 28.4 °F 65% 30.02 in 10.0 mi WNW 6.9 mph - N/A   Clear
10:15 PM 39.2 °F 35.9 °F 28.4 °F 65% 30.02 in 10.0 mi West 4.6 mph - N/A   Clear
10:35 PM 39.2 °F 34.2 °F 28.4 °F 65% 30.03 in 10.0 mi West 6.9 mph - N/A   Clear
10:55 PM 37.4 °F 32.8 °F 26.6 °F 65% 30.03 in 10.0 mi West 5.8 mph - N/A   Clear
11:15 PM 37.4 °F - 26.6 °F 65% 30.04 in 10.0 mi Calm Calm - N/A   Clear
11:35 PM 35.6 °F - 26.6 °F 70% 30.04 in 10.0 mi Calm Calm - N/A   Clear
11:55 PM 32.0 °F - 26.6 °F 80% 30.04 in 10.0 mi Calm Calm - N/A   Clear